User: anonymous
Location: Cincinnati Observatory Center
(39.1389°N, 84.4225°W)
Time: 09:24:58
(UTC-04:00)
Language:

JAS-1B - Orbit

View from above orbital plane
View from above orbital plane
View from above satellite
View from above satellite

Ground track
Ground track

The orbit data is extracted from the following two-line orbital elements,

1 20480U 90013C   14202.81468513 -.00000048  00000-0 -25582-4 0  7899
2 20480 099.0463 159.4419 0539344 275.3627 147.6167 12.83394658145573
Epoch (UTC): 21 July 2014 19:33:08
Eccentricity: 0.0539344
inclination: 99.0463°
perigee height: 912 km
apogee height: 1743 km
right ascension of ascending node: 159.4419°
argument of perigee: 275.3627°
revolutions per day: 12.83394658
mean anomaly at epoch: 147.6167°
orbit number at epoch: 14557

The dashed part of the orbit path shows where the satellite is in the earth's shadow,  

DLR